Simultaneous Nadir Overpasses (SNOs) Predictions

Prediction of SNOs between NOAA-19 and NPP Satellite Orbit:

Table of predicted SNOs for the next 14.0 days since TLE Epoch: 11/22/2019
Index Date (NOAA-19) Time (NOAA-19) Lat,Lon (NOAA-19) SZA (NOAA-19 ) Date (NPP) Time (NPP) Lat,Lon (NPP) SZA (NPP ) Distance(km) Time Diff (sec)
1 12/05/2019 15:46:31 79.72, -93.22 103.74 12/05/2019 15:47:46 79.76, -93.27 103.74 3.87 75
2 12/05/2019 16:37:30 -79.74, 74.26 76.27 12/05/2019 16:38:30 -79.73, 74.26 76.30 1.05 60
3 12/05/2019 17:28:31 79.74,-118.50 103.74 12/05/2019 17:29:15 79.73,-118.40 103.70 2.53 44
4 12/05/2019 18:19:31 -79.74, 48.67 76.26 12/05/2019 18:20:00 -79.74, 48.84 76.28 3.45 29
5 12/05/2019 19:10:31 79.76,-143.79 103.75 12/05/2019 19:10:45 79.73,-143.81 103.72 3.04 14
6 12/05/2019 20:01:31 -79.75, 23.38 76.25 12/05/2019 20:01:30 -79.74, 23.43 76.27 1.62 1
7 12/05/2019 20:52:32 79.75,-169.37 103.76 12/05/2019 20:52:16 79.77,-169.51 103.79 3.30 16
8 12/05/2019 21:43:31 -79.77, -1.91 76.25 12/05/2019 21:43:00 -79.75, -1.98 76.25 3.26 31
9 12/05/2019 22:34:33 79.75, 165.05 103.77 12/05/2019 22:33:46 79.77, 165.07 103.81 3.10 47
10 12/05/2019 23:25:32 -79.77, -27.49 76.23 12/05/2019 23:24:30 -79.75, -27.40 76.23 2.45 62




NCC Satellite Simultaneous Nadir Overpasses (SNOs) Prediction Service
